Year,Month,Day,Hour,Minute,Value (Times are PST for temperature in C)
2007,10,24,00,00,16.80
2007,10,24,00,01,16.80
2007,10,24,00,02,16.80
2007,10,24,00,03,16.80
2007,10,24,00,04,16.70
2007,10,24,00,05,16.70
2007,10,24,00,06,16.70
2007,10,24,00,07,16.70
2007,10,24,00,08,16.70
2007,10,24,00,09,16.60
2007,10,24,00,10,16.60
2007,10,24,00,11,16.50
2007,10,24,00,12,16.40
2007,10,24,00,13,16.50
2007,10,24,00,14,16.60
2007,10,24,00,15,16.60
2007,10,24,00,16,16.60
2007,10,24,00,17,16.60
2007,10,24,00,18,16.60
2007,10,24,00,19,16.60
2007,10,24,00,20,16.60
2007,10,24,00,21,16.60
2007,10,24,00,22,16.60
2007,10,24,00,23,16.60
2007,10,24,00,24,16.60
2007,10,24,00,25,16.60
2007,10,24,00,26,16.70
2007,10,24,00,27,16.70
2007,10,24,00,28,16.70
2007,10,24,00,29,16.70
2007,10,24,00,30,16.70
2007,10,24,00,31,16.70
2007,10,24,00,32,16.70
2007,10,24,00,33,16.60
2007,10,24,00,34,16.40
2007,10,24,00,35,16.40
2007,10,24,00,36,16.40
2007,10,24,00,37,16.40
2007,10,24,00,38,16.40
2007,10,24,00,39,16.40
2007,10,24,00,40,16.30
2007,10,24,00,41,16.30
2007,10,24,00,42,16.30
2007,10,24,00,43,16.30
2007,10,24,00,44,16.30
2007,10,24,00,45,16.30
2007,10,24,00,46,16.30
2007,10,24,00,47,16.30
2007,10,24,00,48,16.30
2007,10,24,00,49,16.30
2007,10,24,00,50,16.30
2007,10,24,00,51,16.30
2007,10,24,00,52,16.30
2007,10,24,00,53,16.30
2007,10,24,00,54,16.30
2007,10,24,00,55,16.30
2007,10,24,00,56,16.30
2007,10,24,00,57,16.30
2007,10,24,00,58,16.40
2007,10,24,00,59,16.40
2007,10,24,01,00,16.30
2007,10,24,01,01,16.20
2007,10,24,01,02,16.00
2007,10,24,01,03,15.80
2007,10,24,01,04,15.60
2007,10,24,01,05,15.50
2007,10,24,01,06,15.30
2007,10,24,01,07,15.20
2007,10,24,01,08,15.10
2007,10,24,01,09,15.00
2007,10,24,01,10,14.90
2007,10,24,01,11,14.80
2007,10,24,01,12,14.80
2007,10,24,01,13,14.70
2007,10,24,01,14,14.70
2007,10,24,01,15,14.60
2007,10,24,01,16,14.60
2007,10,24,01,17,14.60
2007,10,24,01,18,14.50
2007,10,24,01,19,14.50
2007,10,24,01,20,14.50
2007,10,24,01,21,14.40
2007,10,24,01,22,14.40
2007,10,24,01,23,14.40
2007,10,24,01,24,14.40
2007,10,24,01,25,14.40
2007,10,24,01,26,14.30
2007,10,24,01,27,14.30
2007,10,24,01,28,14.30
2007,10,24,01,29,14.30
2007,10,24,01,30,14.20
2007,10,24,01,31,14.20
2007,10,24,01,32,14.20
2007,10,24,01,33,14.20
2007,10,24,01,34,14.20
2007,10,24,01,35,14.20
2007,10,24,01,36,14.10
2007,10,24,01,37,14.10
2007,10,24,01,38,14.00
2007,10,24,01,39,14.00
2007,10,24,01,40,13.90
2007,10,24,01,41,13.90
2007,10,24,01,42,13.80
2007,10,24,01,43,13.80
2007,10,24,01,44,13.70
2007,10,24,01,45,13.70
2007,10,24,01,46,13.70
2007,10,24,01,47,13.60
2007,10,24,01,48,13.60
2007,10,24,01,49,13.50
2007,10,24,01,50,13.50
2007,10,24,01,51,13.40
2007,10,24,01,52,13.40
2007,10,24,01,53,13.40
2007,10,24,01,54,13.30
2007,10,24,01,55,13.30
2007,10,24,01,56,13.30
2007,10,24,01,57,13.20
2007,10,24,01,58,13.10
2007,10,24,01,59,13.10
2007,10,24,02,00,13.10
2007,10,24,02,01,13.00
2007,10,24,02,02,13.00
2007,10,24,02,03,12.90
2007,10,24,02,04,12.90
2007,10,24,02,05,12.90
2007,10,24,02,06,12.80
2007,10,24,02,07,12.80
2007,10,24,02,08,12.80
2007,10,24,02,09,12.80
2007,10,24,02,10,12.70
2007,10,24,02,11,12.70
2007,10,24,02,12,12.70
2007,10,24,02,13,12.60
2007,10,24,02,14,12.60
2007,10,24,02,15,12.60
2007,10,24,02,16,12.60
2007,10,24,02,17,12.60
2007,10,24,02,18,12.60
2007,10,24,02,19,12.60
2007,10,24,02,20,12.60
2007,10,24,02,21,12.50
2007,10,24,02,22,12.50
2007,10,24,02,23,12.50
2007,10,24,02,24,12.50
2007,10,24,02,25,12.50
2007,10,24,02,26,12.50
2007,10,24,02,27,12.40
2007,10,24,02,28,12.40
2007,10,24,02,29,12.40
2007,10,24,02,30,12.40
2007,10,24,02,31,12.40
2007,10,24,02,32,12.30
2007,10,24,02,33,12.30
2007,10,24,02,34,12.30
2007,10,24,02,35,12.30
2007,10,24,02,36,12.40
2007,10,24,02,37,12.40
2007,10,24,02,38,12.40
2007,10,24,02,39,12.40
2007,10,24,02,40,12.40
2007,10,24,02,41,12.40
2007,10,24,02,42,12.40
2007,10,24,02,43,12.40
2007,10,24,02,44,12.40
2007,10,24,02,45,12.40
2007,10,24,02,46,12.40
2007,10,24,02,47,12.40
2007,10,24,02,48,12.40
2007,10,24,02,49,12.40
2007,10,24,02,50,12.40
2007,10,24,02,51,12.40
2007,10,24,02,52,12.40
2007,10,24,02,53,12.40
2007,10,24,02,54,12.40
2007,10,24,02,55,12.40
2007,10,24,02,56,12.40
2007,10,24,02,57,12.40
2007,10,24,02,58,12.30
2007,10,24,02,59,12.30
2007,10,24,03,00,12.30
2007,10,24,03,01,12.30
2007,10,24,03,02,12.30
2007,10,24,03,03,12.30
2007,10,24,03,04,12.30
2007,10,24,03,05,12.30
2007,10,24,03,06,12.30
2007,10,24,03,07,12.30
2007,10,24,03,08,12.30
2007,10,24,03,09,12.30
2007,10,24,03,10,12.40
2007,10,24,03,11,12.50
2007,10,24,03,12,12.60
2007,10,24,03,13,12.80
2007,10,24,03,14,12.90
2007,10,24,03,15,13.00
2007,10,24,03,16,13.10
2007,10,24,03,17,13.20
2007,10,24,03,18,13.30
2007,10,24,03,19,13.40
2007,10,24,03,20,13.50
2007,10,24,03,21,13.70
2007,10,24,03,22,13.80
2007,10,24,03,23,13.90
2007,10,24,03,24,14.00
2007,10,24,03,25,14.20
2007,10,24,03,26,14.20
2007,10,24,03,27,14.30
2007,10,24,03,28,14.40
2007,10,24,03,29,14.40
2007,10,24,03,30,14.50
2007,10,24,03,31,14.50
2007,10,24,03,32,14.60
2007,10,24,03,33,14.70
2007,10,24,03,34,14.70
2007,10,24,03,35,14.70
2007,10,24,03,36,14.70
2007,10,24,03,37,14.70
2007,10,24,03,38,14.70
2007,10,24,03,39,14.70
2007,10,24,03,40,14.70
2007,10,24,03,41,14.70
2007,10,24,03,42,14.70
2007,10,24,03,43,14.70
2007,10,24,03,44,14.70
2007,10,24,03,45,14.70
2007,10,24,03,46,14.70
2007,10,24,03,47,14.70
2007,10,24,03,48,14.70
2007,10,24,03,49,14.70
2007,10,24,03,50,14.80
2007,10,24,03,51,14.80
2007,10,24,03,52,14.70
2007,10,24,03,53,14.70
2007,10,24,03,54,14.70
2007,10,24,03,55,14.70
2007,10,24,03,56,14.70
2007,10,24,03,57,14.70
2007,10,24,03,58,14.70
2007,10,24,03,59,14.70
2007,10,24,04,00,14.70
2007,10,24,04,01,14.70
2007,10,24,04,02,14.80
2007,10,24,04,03,14.80
2007,10,24,04,04,14.80
2007,10,24,04,05,14.80
2007,10,24,04,06,14.80
2007,10,24,04,07,14.80
2007,10,24,04,08,14.80
2007,10,24,04,09,14.80
2007,10,24,04,10,14.80
2007,10,24,04,11,14.80
2007,10,24,04,12,14.80
2007,10,24,04,13,14.80
2007,10,24,04,14,14.70
2007,10,24,04,15,14.60
2007,10,24,04,16,14.50
2007,10,24,04,17,14.40
2007,10,24,04,18,14.30
2007,10,24,04,19,14.20
2007,10,24,04,20,14.20
2007,10,24,04,21,14.20
2007,10,24,04,22,14.20
2007,10,24,04,23,14.20
2007,10,24,04,24,14.20
2007,10,24,04,25,14.10
2007,10,24,04,26,14.10
2007,10,24,04,27,14.00
2007,10,24,04,28,14.00
2007,10,24,04,29,13.90
2007,10,24,04,30,13.80
2007,10,24,04,31,13.80
2007,10,24,04,32,13.70
2007,10,24,04,33,13.70
2007,10,24,04,34,13.70
2007,10,24,04,35,13.60
2007,10,24,04,36,13.60
2007,10,24,04,37,13.50
2007,10,24,04,38,13.50
2007,10,24,04,39,13.40
2007,10,24,04,40,13.40
2007,10,24,04,41,13.50
2007,10,24,04,42,13.50
2007,10,24,04,43,13.50
2007,10,24,04,44,13.50
2007,10,24,04,45,13.50
2007,10,24,04,46,13.50
2007,10,24,04,47,13.50
2007,10,24,04,48,13.50
2007,10,24,04,49,13.40
2007,10,24,04,50,13.40
2007,10,24,04,51,13.40
2007,10,24,04,52,13.40
2007,10,24,04,53,13.30
2007,10,24,04,54,13.30
2007,10,24,04,55,13.30
2007,10,24,04,56,13.20
2007,10,24,04,57,13.20
2007,10,24,04,58,13.10
2007,10,24,04,59,13.10
2007,10,24,05,00,13.10
2007,10,24,05,01,13.00
2007,10,24,05,02,13.00
2007,10,24,05,03,13.00
2007,10,24,05,04,12.90
2007,10,24,05,05,12.90
2007,10,24,05,06,12.90
2007,10,24,05,07,12.90
2007,10,24,05,08,12.90
2007,10,24,05,09,12.80
2007,10,24,05,10,12.80
2007,10,24,05,11,12.80
2007,10,24,05,12,12.80
2007,10,24,05,13,12.70
2007,10,24,05,14,12.70
2007,10,24,05,15,12.70
2007,10,24,05,16,12.70
2007,10,24,05,17,12.70
2007,10,24,05,18,12.70
2007,10,24,05,19,12.70
2007,10,24,05,20,12.70
2007,10,24,05,21,12.70
2007,10,24,05,22,12.70
2007,10,24,05,23,12.70
2007,10,24,05,24,12.70
2007,10,24,05,25,12.70
2007,10,24,05,26,12.70
2007,10,24,05,27,12.70
2007,10,24,05,28,12.70
2007,10,24,05,29,12.70
2007,10,24,05,30,12.70
2007,10,24,05,31,12.70
2007,10,24,05,32,12.70
2007,10,24,05,33,12.70
2007,10,24,05,34,12.60
2007,10,24,05,35,12.60
2007,10,24,05,36,12.60
2007,10,24,05,37,12.60
2007,10,24,05,38,12.60
2007,10,24,05,39,12.60
2007,10,24,05,40,12.60
2007,10,24,05,41,12.60
2007,10,24,05,42,12.60
2007,10,24,05,43,12.60
2007,10,24,05,44,12.60
2007,10,24,05,45,12.60
2007,10,24,05,46,12.50
2007,10,24,05,47,12.50
2007,10,24,05,48,12.50
2007,10,24,05,49,12.40
2007,10,24,05,50,12.40
2007,10,24,05,51,12.40
2007,10,24,05,52,12.30
2007,10,24,05,53,12.30
2007,10,24,05,54,12.30
2007,10,24,05,55,12.30
2007,10,24,05,56,12.30
2007,10,24,05,57,12.30
2007,10,24,05,58,12.30
2007,10,24,05,59,12.30
2007,10,24,06,00,12.30
2007,10,24,06,01,12.30
2007,10,24,06,02,12.30
2007,10,24,06,03,12.20
2007,10,24,06,04,12.20
2007,10,24,06,05,12.20
2007,10,24,06,06,12.20
2007,10,24,06,07,12.20
2007,10,24,06,08,12.20
2007,10,24,06,09,12.10
2007,10,24,06,10,12.10
2007,10,24,06,11,12.10
2007,10,24,06,12,12.10
2007,10,24,06,13,12.10
2007,10,24,06,14,12.10
2007,10,24,06,15,12.00
2007,10,24,06,16,12.00
2007,10,24,06,17,12.00
2007,10,24,06,18,12.00
2007,10,24,06,19,12.00
2007,10,24,06,20,11.90
2007,10,24,06,21,11.90
2007,10,24,06,22,11.90
2007,10,24,06,23,11.90
2007,10,24,06,24,11.90
2007,10,24,06,25,11.90
2007,10,24,06,26,11.80
2007,10,24,06,27,11.80
2007,10,24,06,28,11.80
2007,10,24,06,29,11.80
2007,10,24,06,30,11.80
2007,10,24,06,31,11.80
2007,10,24,06,32,11.80
2007,10,24,06,33,11.80
2007,10,24,06,34,11.80
2007,10,24,06,35,11.80
2007,10,24,06,36,11.80
2007,10,24,06,37,11.80
2007,10,24,06,38,11.80
2007,10,24,06,39,11.80
2007,10,24,06,40,11.80
2007,10,24,06,41,11.80
2007,10,24,06,42,11.80
2007,10,24,06,43,11.80
2007,10,24,06,44,11.80
2007,10,24,06,45,11.70
2007,10,24,06,46,11.70
2007,10,24,06,47,11.70
2007,10,24,06,48,11.70
2007,10,24,06,49,11.70
2007,10,24,06,50,11.70
2007,10,24,06,51,11.60
2007,10,24,06,52,11.60
2007,10,24,06,53,11.60
2007,10,24,06,54,11.60
2007,10,24,06,55,11.60
2007,10,24,06,56,11.60
2007,10,24,06,57,11.60
2007,10,24,06,58,11.60
2007,10,24,06,59,11.60
2007,10,24,07,00,11.60
2007,10,24,07,01,11.60
2007,10,24,07,02,11.70
2007,10,24,07,03,11.70
2007,10,24,07,04,11.70
2007,10,24,07,05,11.70
2007,10,24,07,06,11.70
2007,10,24,07,07,11.70
2007,10,24,07,08,11.70
2007,10,24,07,09,11.70
2007,10,24,07,10,11.70
2007,10,24,07,11,11.70
2007,10,24,07,12,11.70
2007,10,24,07,13,11.70
2007,10,24,07,14,11.70
2007,10,24,07,15,11.70
2007,10,24,07,16,11.60
2007,10,24,07,17,11.60
2007,10,24,07,18,11.60
2007,10,24,07,19,11.60
2007,10,24,07,20,11.60
2007,10,24,07,21,11.60
2007,10,24,07,22,11.60
2007,10,24,07,23,11.60
2007,10,24,07,24,11.60
2007,10,24,07,25,11.60
2007,10,24,07,26,11.60
2007,10,24,07,27,11.60
2007,10,24,07,28,11.60
2007,10,24,07,29,11.60
2007,10,24,07,30,11.70
2007,10,24,07,31,11.70
2007,10,24,07,32,11.70
2007,10,24,07,33,11.70
2007,10,24,07,34,11.80
2007,10,24,07,35,11.90
2007,10,24,07,36,12.00
2007,10,24,07,37,12.20
2007,10,24,07,38,12.30
2007,10,24,07,39,12.40
2007,10,24,07,40,12.60
2007,10,24,07,41,12.70
2007,10,24,07,42,12.80
2007,10,24,07,43,12.90
2007,10,24,07,44,13.00
2007,10,24,07,45,13.10
2007,10,24,07,46,13.30
2007,10,24,07,47,13.40
2007,10,24,07,48,13.50
2007,10,24,07,49,13.50
2007,10,24,07,50,13.60
2007,10,24,07,51,13.60
2007,10,24,07,52,13.70
2007,10,24,07,53,13.70
2007,10,24,07,54,13.70
2007,10,24,07,55,13.70
2007,10,24,07,56,13.80
2007,10,24,07,57,13.90
2007,10,24,07,58,13.90
2007,10,24,07,59,14.00
2007,10,24,08,00,14.00
2007,10,24,08,01,14.00
2007,10,24,08,02,14.00
2007,10,24,08,03,14.00
2007,10,24,08,04,14.00
2007,10,24,08,05,14.00
2007,10,24,08,06,14.00
2007,10,24,08,07,13.90
2007,10,24,08,08,13.90
2007,10,24,08,09,13.90
2007,10,24,08,10,13.80
2007,10,24,08,11,13.80
2007,10,24,08,12,13.70
2007,10,24,08,13,13.70
2007,10,24,08,14,13.70
2007,10,24,08,15,13.60
2007,10,24,08,16,13.60
2007,10,24,08,17,13.50
2007,10,24,08,18,13.50
2007,10,24,08,19,13.50
2007,10,24,08,20,13.40
2007,10,24,08,21,13.40
2007,10,24,08,22,13.30
2007,10,24,08,23,13.30
2007,10,24,08,24,13.30
2007,10,24,08,25,13.30
2007,10,24,08,26,13.30
2007,10,24,08,27,13.30
2007,10,24,08,28,13.30
2007,10,24,08,29,13.30
2007,10,24,08,30,13.30
2007,10,24,08,31,13.30
2007,10,24,08,32,13.30
2007,10,24,08,33,13.30
2007,10,24,08,34,13.30
2007,10,24,08,35,13.30
2007,10,24,08,36,13.30
2007,10,24,08,37,13.40
2007,10,24,08,38,13.50
2007,10,24,08,39,13.60
2007,10,24,08,40,13.70
2007,10,24,08,41,13.70
2007,10,24,08,42,13.80
2007,10,24,08,43,13.80
2007,10,24,08,44,13.80
2007,10,24,08,45,13.80
2007,10,24,08,46,13.70
2007,10,24,08,47,13.70
2007,10,24,08,48,13.70
2007,10,24,08,49,13.60
2007,10,24,08,50,13.60
2007,10,24,08,51,13.50
2007,10,24,08,52,13.50
2007,10,24,08,53,13.50
2007,10,24,08,54,13.40
2007,10,24,08,55,13.40
2007,10,24,08,56,13.30
2007,10,24,08,57,13.30
2007,10,24,08,58,13.30
2007,10,24,08,59,13.30
2007,10,24,09,00,13.30
2007,10,24,09,01,13.30
2007,10,24,09,02,13.20
2007,10,24,09,03,13.20
2007,10,24,09,04,13.20
2007,10,24,09,05,13.20
2007,10,24,09,06,13.20
2007,10,24,09,07,13.10
2007,10,24,09,08,13.10
2007,10,24,09,09,13.10
2007,10,24,09,10,13.10
2007,10,24,09,11,13.10
2007,10,24,09,12,13.10
2007,10,24,09,13,13.10
2007,10,24,09,14,13.10
2007,10,24,09,15,13.10
2007,10,24,09,16,13.10
2007,10,24,09,17,13.00
2007,10,24,09,18,13.00
2007,10,24,09,19,13.00
2007,10,24,09,20,13.00
2007,10,24,09,21,12.90
2007,10,24,09,22,12.90
2007,10,24,09,23,12.80
2007,10,24,09,24,12.80
2007,10,24,09,25,12.80
2007,10,24,09,26,12.80
2007,10,24,09,27,12.70
2007,10,24,09,28,12.70
2007,10,24,09,29,12.60
2007,10,24,09,30,12.40
2007,10,24,09,31,12.30
2007,10,24,09,32,12.20
2007,10,24,09,33,12.00
2007,10,24,09,34,11.90
2007,10,24,09,35,11.80
2007,10,24,09,36,11.70
2007,10,24,09,37,11.60
2007,10,24,09,38,11.50
2007,10,24,09,39,11.40
2007,10,24,09,40,11.40
2007,10,24,09,41,11.30
2007,10,24,09,42,11.20
2007,10,24,09,43,11.20
2007,10,24,09,44,11.10
2007,10,24,09,45,11.10
2007,10,24,09,46,11.10
2007,10,24,09,47,11.00
2007,10,24,09,48,10.90
2007,10,24,09,49,10.90
2007,10,24,09,50,10.90
2007,10,24,09,51,10.90
2007,10,24,09,52,10.90
2007,10,24,09,53,10.90
2007,10,24,09,54,10.90
2007,10,24,09,55,10.80
2007,10,24,09,56,10.80
2007,10,24,09,57,10.80
2007,10,24,09,58,10.80
2007,10,24,09,59,10.70
2007,10,24,10,00,10.70
2007,10,24,10,01,10.70
2007,10,24,10,02,10.70
2007,10,24,10,03,10.70
2007,10,24,10,04,10.60
2007,10,24,10,05,10.60
2007,10,24,10,06,10.60
2007,10,24,10,07,10.60
2007,10,24,10,08,10.60
2007,10,24,10,09,10.60
2007,10,24,10,10,10.60
2007,10,24,10,11,10.60
2007,10,24,10,12,10.60
2007,10,24,10,13,10.60
2007,10,24,10,14,10.60
2007,10,24,10,15,10.60
2007,10,24,10,16,10.60
2007,10,24,10,17,10.60
2007,10,24,10,18,10.60
2007,10,24,10,19,10.50
2007,10,24,10,20,10.40
2007,10,24,10,21,10.40
2007,10,24,10,22,10.40
2007,10,24,10,23,10.40
2007,10,24,10,24,10.40
2007,10,24,10,25,10.40
2007,10,24,10,26,10.40
2007,10,24,10,27,10.40
2007,10,24,10,28,10.40
2007,10,24,10,29,10.40
2007,10,24,10,30,10.40
2007,10,24,10,31,10.40
2007,10,24,10,32,10.40
2007,10,24,10,33,10.40
2007,10,24,10,34,10.40
2007,10,24,10,35,10.40
2007,10,24,10,36,10.40
2007,10,24,10,37,10.40
2007,10,24,10,38,10.40
2007,10,24,10,39,10.40
2007,10,24,10,40,10.40
2007,10,24,10,41,10.40
2007,10,24,10,42,10.40
2007,10,24,10,43,10.40
2007,10,24,10,44,10.40
2007,10,24,10,45,10.40
2007,10,24,10,46,10.40
2007,10,24,10,47,10.40
2007,10,24,10,48,10.40
2007,10,24,10,49,10.40
2007,10,24,10,50,10.40
2007,10,24,10,51,10.40
2007,10,24,10,52,10.40
2007,10,24,10,53,10.40
2007,10,24,10,54,10.50
2007,10,24,10,55,10.40
2007,10,24,10,56,10.40
2007,10,24,10,57,10.50
2007,10,24,10,58,10.50
2007,10,24,10,59,10.40
2007,10,24,11,00,10.40
2007,10,24,11,01,10.40
2007,10,24,11,02,10.40
2007,10,24,11,03,10.40
2007,10,24,11,04,10.40
2007,10,24,11,05,10.40
2007,10,24,11,06,10.40
2007,10,24,11,07,10.40
2007,10,24,11,08,10.40
2007,10,24,11,09,10.40
2007,10,24,11,10,10.40
2007,10,24,11,11,10.40
2007,10,24,11,12,10.40
2007,10,24,11,13,10.40
2007,10,24,11,14,10.40
2007,10,24,11,15,10.40
2007,10,24,11,16,10.40
2007,10,24,11,17,10.40
2007,10,24,11,18,10.40
2007,10,24,11,19,10.40
2007,10,24,11,20,10.40
2007,10,24,11,21,10.40
2007,10,24,11,22,10.40
2007,10,24,11,23,10.40
2007,10,24,11,24,10.40
2007,10,24,11,25,10.40
2007,10,24,11,26,10.40
2007,10,24,11,27,10.40
2007,10,24,11,28,10.40
2007,10,24,11,29,10.40
2007,10,24,11,30,10.40
2007,10,24,11,31,10.40
2007,10,24,11,32,10.40
2007,10,24,11,33,10.40
2007,10,24,11,34,10.40
2007,10,24,11,35,10.40
2007,10,24,11,36,10.40
2007,10,24,11,37,10.40
2007,10,24,11,38,10.40
2007,10,24,11,39,10.40
2007,10,24,11,40,10.40
2007,10,24,11,41,10.40
2007,10,24,11,42,10.40
2007,10,24,11,43,10.40
2007,10,24,11,44,10.40
2007,10,24,11,45,10.40
2007,10,24,11,46,10.40
2007,10,24,11,47,10.40
2007,10,24,11,48,10.40
2007,10,24,11,49,10.40
2007,10,24,11,50,10.40
2007,10,24,11,51,10.40
2007,10,24,11,52,10.40
2007,10,24,11,53,10.40
2007,10,24,11,54,10.40
2007,10,24,11,55,10.40
2007,10,24,11,56,10.40
2007,10,24,11,57,10.40
2007,10,24,11,58,10.40
2007,10,24,11,59,10.40
2007,10,24,12,00,10.40
2007,10,24,12,01,10.40
2007,10,24,12,02,10.50
2007,10,24,12,03,10.60
2007,10,24,12,04,10.60
2007,10,24,12,05,10.60
2007,10,24,12,06,10.70
2007,10,24,12,07,10.80
2007,10,24,12,08,10.80
2007,10,24,12,09,10.90
2007,10,24,12,10,10.90
2007,10,24,12,11,10.90
2007,10,24,12,12,10.90
2007,10,24,12,13,10.90
2007,10,24,12,14,10.90
2007,10,24,12,15,10.90
2007,10,24,12,16,10.90
2007,10,24,12,17,10.90
2007,10,24,12,18,10.90
2007,10,24,12,19,10.90
2007,10,24,12,20,10.90
2007,10,24,12,21,10.90
2007,10,24,12,22,10.90
2007,10,24,12,23,11.00
2007,10,24,12,24,11.10
2007,10,24,12,25,11.10
2007,10,24,12,26,11.20
2007,10,24,12,27,11.30
2007,10,24,12,28,11.40
2007,10,24,12,29,11.40
2007,10,24,12,30,11.40
2007,10,24,12,31,11.40
2007,10,24,12,32,11.40
2007,10,24,12,33,11.40
2007,10,24,12,34,11.40
2007,10,24,12,35,11.40
2007,10,24,12,36,11.40
2007,10,24,12,37,11.40
2007,10,24,12,38,11.40
2007,10,24,12,39,11.40
2007,10,24,12,40,11.40
2007,10,24,12,41,11.40
2007,10,24,12,42,11.40
2007,10,24,12,43,11.30
2007,10,24,12,44,11.30
2007,10,24,12,45,11.20
2007,10,24,12,46,11.20
2007,10,24,12,47,11.20
2007,10,24,12,48,11.20
2007,10,24,12,49,11.20
2007,10,24,12,50,11.30
2007,10,24,12,51,11.30
2007,10,24,12,52,11.30
2007,10,24,12,53,11.40
2007,10,24,12,54,11.50
2007,10,24,12,55,11.60
2007,10,24,12,56,11.70
2007,10,24,12,57,11.80
2007,10,24,12,58,11.90
2007,10,24,12,59,12.00
2007,10,24,13,00,12.10
2007,10,24,13,01,12.10
2007,10,24,13,02,12.10
2007,10,24,13,03,12.10
2007,10,24,13,04,12.20
2007,10,24,13,05,12.20
2007,10,24,13,06,12.20
2007,10,24,13,07,12.20
2007,10,24,13,08,12.10
2007,10,24,13,09,12.10
2007,10,24,13,10,12.00
2007,10,24,13,11,12.00
2007,10,24,13,12,12.00
2007,10,24,13,13,12.10
2007,10,24,13,14,12.10
2007,10,24,13,15,12.20
2007,10,24,13,16,12.20
2007,10,24,13,17,12.30
2007,10,24,13,18,12.20
2007,10,24,13,19,12.10
2007,10,24,13,20,12.10
2007,10,24,13,21,12.00
2007,10,24,13,22,12.00
2007,10,24,13,23,12.00
2007,10,24,13,24,12.10
2007,10,24,13,25,12.10
2007,10,24,13,26,12.20
2007,10,24,13,27,12.30
2007,10,24,13,28,12.20
2007,10,24,13,29,12.20
2007,10,24,13,30,12.20
2007,10,24,13,31,12.30
2007,10,24,13,32,12.30
2007,10,24,13,33,12.30
2007,10,24,13,34,12.30
2007,10,24,13,35,12.20
2007,10,24,13,36,12.20
2007,10,24,13,37,12.20
2007,10,24,13,38,12.20
2007,10,24,13,39,12.20
2007,10,24,13,40,12.20
2007,10,24,13,41,12.20
2007,10,24,13,42,12.30
2007,10,24,13,43,12.30
2007,10,24,13,44,12.30
2007,10,24,13,45,12.30
2007,10,24,13,46,12.30
2007,10,24,13,47,12.30
2007,10,24,13,48,12.30
2007,10,24,13,49,12.30
2007,10,24,13,50,12.30
2007,10,24,13,51,12.30
2007,10,24,13,52,12.30
2007,10,24,13,53,12.30
2007,10,24,13,54,12.30
2007,10,24,13,55,12.30
2007,10,24,13,56,12.30
2007,10,24,13,57,12.30
2007,10,24,13,58,12.30
2007,10,24,13,59,12.30
2007,10,24,14,00,12.40
2007,10,24,14,01,12.40
2007,10,24,14,02,12.40
2007,10,24,14,03,12.40
2007,10,24,14,04,12.40
2007,10,24,14,05,12.40
2007,10,24,14,06,12.40
2007,10,24,14,07,12.40
2007,10,24,14,08,12.40
2007,10,24,14,09,12.40
2007,10,24,14,10,12.50
2007,10,24,14,11,12.50
2007,10,24,14,12,12.50
2007,10,24,14,13,12.50
2007,10,24,14,14,12.50
2007,10,24,14,15,12.50
2007,10,24,14,16,12.50
2007,10,24,14,17,12.50
2007,10,24,14,18,12.60
2007,10,24,14,19,12.60
2007,10,24,14,20,12.50
2007,10,24,14,21,12.50
2007,10,24,14,22,12.50
2007,10,24,14,23,12.50
2007,10,24,14,24,12.50
2007,10,24,14,25,12.50
2007,10,24,14,26,12.40
2007,10,24,14,27,12.40
2007,10,24,14,28,12.40
2007,10,24,14,29,12.30
2007,10,24,14,30,12.30
2007,10,24,14,31,12.30
2007,10,24,14,32,12.40
2007,10,24,14,33,12.40
2007,10,24,14,34,12.40
2007,10,24,14,35,12.40
2007,10,24,14,36,12.30
2007,10,24,14,37,12.30
2007,10,24,14,38,12.30
2007,10,24,14,39,12.30
2007,10,24,14,40,12.30
2007,10,24,14,41,12.30
2007,10,24,14,42,12.30
2007,10,24,14,43,12.30
2007,10,24,14,44,12.30
2007,10,24,14,45,12.30
2007,10,24,14,46,12.30
2007,10,24,14,47,12.30
2007,10,24,14,48,12.30
2007,10,24,14,49,12.20
2007,10,24,14,50,12.20
2007,10,24,14,51,12.10
2007,10,24,14,52,12.00
2007,10,24,14,53,11.90
2007,10,24,14,54,11.80
2007,10,24,14,55,11.80
2007,10,24,14,56,11.70
2007,10,24,14,57,11.70
2007,10,24,14,58,11.60
2007,10,24,14,59,11.70
2007,10,24,15,00,11.70
2007,10,24,15,01,11.70
2007,10,24,15,02,11.70
2007,10,24,15,03,11.70
2007,10,24,15,04,11.70
2007,10,24,15,05,11.70
2007,10,24,15,06,11.70
2007,10,24,15,07,11.70
2007,10,24,15,08,11.60
2007,10,24,15,09,11.60
2007,10,24,15,10,11.60
2007,10,24,15,11,11.60
2007,10,24,15,12,11.60
2007,10,24,15,13,11.40
2007,10,24,15,14,11.40
2007,10,24,15,15,11.40
2007,10,24,15,16,11.40
2007,10,24,15,17,11.40
2007,10,24,15,18,11.30
2007,10,24,15,19,11.30
2007,10,24,15,20,11.20
2007,10,24,15,21,11.20
2007,10,24,15,22,11.20
2007,10,24,15,23,11.10
2007,10,24,15,24,11.10
2007,10,24,15,25,11.10
2007,10,24,15,26,11.20
2007,10,24,15,27,11.20
2007,10,24,15,28,11.30
2007,10,24,15,29,11.30
2007,10,24,15,30,11.40
2007,10,24,15,31,11.40
2007,10,24,15,32,11.40
2007,10,24,15,33,11.40
2007,10,24,15,34,11.40
2007,10,24,15,35,11.40
2007,10,24,15,36,11.30
2007,10,24,15,37,11.30
2007,10,24,15,38,11.30
2007,10,24,15,39,11.20
2007,10,24,15,40,11.20
2007,10,24,15,41,11.20
2007,10,24,15,42,11.20
2007,10,24,15,43,11.20
2007,10,24,15,44,11.10
2007,10,24,15,45,11.10
2007,10,24,15,46,11.10
2007,10,24,15,47,11.10
2007,10,24,15,48,11.10
2007,10,24,15,49,11.10
2007,10,24,15,50,11.10
2007,10,24,15,51,11.00
2007,10,24,15,52,10.90
2007,10,24,15,53,10.90
2007,10,24,15,54,10.90
2007,10,24,15,55,10.90
2007,10,24,15,56,10.90
2007,10,24,15,57,10.90
2007,10,24,15,58,10.90
2007,10,24,15,59,10.90
2007,10,24,16,00,10.90
2007,10,24,16,01,10.90
2007,10,24,16,02,10.90
2007,10,24,16,03,10.90
2007,10,24,16,04,10.80
2007,10,24,16,05,10.80
2007,10,24,16,06,10.80
2007,10,24,16,07,10.80
2007,10,24,16,08,10.80
2007,10,24,16,09,10.80
2007,10,24,16,10,10.80
2007,10,24,16,11,10.80
2007,10,24,16,12,10.90
2007,10,24,16,13,10.90
2007,10,24,16,14,10.90
2007,10,24,16,15,10.90
2007,10,24,16,16,10.90
2007,10,24,16,17,10.90
2007,10,24,16,18,10.90
2007,10,24,16,19,10.90
2007,10,24,16,20,10.90
2007,10,24,16,21,10.90
2007,10,24,16,22,10.90
2007,10,24,16,23,10.90
2007,10,24,16,24,10.90
2007,10,24,16,25,10.90
2007,10,24,16,26,10.90
2007,10,24,16,27,10.90
2007,10,24,16,28,10.80
2007,10,24,16,29,10.80
2007,10,24,16,30,10.80
2007,10,24,16,31,10.80
2007,10,24,16,32,10.80
2007,10,24,16,33,10.80
2007,10,24,16,34,10.80
2007,10,24,16,35,10.80
2007,10,24,16,36,10.80
2007,10,24,16,37,10.80
2007,10,24,16,38,10.80
2007,10,24,16,39,10.80
2007,10,24,16,40,10.80
2007,10,24,16,41,10.80
2007,10,24,16,42,10.80
2007,10,24,16,43,10.80
2007,10,24,16,44,10.80
2007,10,24,16,45,10.80
2007,10,24,16,46,10.80
2007,10,24,16,47,10.90
2007,10,24,16,48,10.90
2007,10,24,16,49,10.90
2007,10,24,16,50,10.90
2007,10,24,16,51,10.90
2007,10,24,16,52,10.90
2007,10,24,16,53,10.90
2007,10,24,16,54,10.90
2007,10,24,16,55,10.90
2007,10,24,16,56,10.90
2007,10,24,16,57,10.90
2007,10,24,16,58,10.90
2007,10,24,16,59,10.90
2007,10,24,17,00,10.90
2007,10,24,17,01,10.90
2007,10,24,17,02,10.90
2007,10,24,17,03,10.90
2007,10,24,17,04,10.90
2007,10,24,17,05,10.90
2007,10,24,17,06,10.90
2007,10,24,17,07,10.90
2007,10,24,17,08,10.90
2007,10,24,17,09,10.80
2007,10,24,17,10,10.80
2007,10,24,17,11,10.80
2007,10,24,17,12,10.80
2007,10,24,17,13,10.70
2007,10,24,17,14,10.70
2007,10,24,17,15,10.70
2007,10,24,17,16,10.70
2007,10,24,17,17,10.70
2007,10,24,17,18,10.70
2007,10,24,17,19,10.70